| time (UTC) | temp C | wind direction | speed KPH | gust KPH | rain 1hr cm | rain 24hr cm | rain mn cm | humidity % | barometer mb |
| 20260901141105 | 23 | 206 | 0.0 | 4.8 | 0.00 | 0.69 | 0.69 | 94 | 1015.9 |
| 20260901140605 | 23 | 285 | 1.6 | 4.8 | 0.00 | 0.69 | 0.69 | 94 | 1015.9 |
| 20260901140106 | 23 | 285 | 1.6 | 4.8 | 0.00 | 0.69 | 0.69 | 94 | 1015.9 |
| 20260901135605 | 23 | 262 | 1.6 | 4.8 | 0.00 | 0.69 | 0.69 | 94 | 1016.0 |
| 20260901135105 | 23 | 239 | 0.0 | 3.2 | 0.00 | 0.69 | 0.69 | 94 | 1015.8 |
| 20260901134605 | 23 | 238 | 1.6 | 3.2 | 0.00 | 0.69 | 0.69 | 94 | 1015.9 |
| 20260901134105 | 23 | 216 | 1.6 | 3.2 | 0.00 | 0.69 | 0.69 | 94 | 1015.9 |
| 20260901133605 | 23 | 218 | 1.6 | 4.8 | 0.00 | 0.69 | 0.69 | 94 | 1015.9 |
| 20260901133105 | 23 | 218 | 0.0 | 4.8 | 0.00 | 0.69 | 0.69 | 94 | 1015.8 |
| 20260901132605 | 23 | 219 | 1.6 | 3.2 | 0.00 | 0.69 | 0.69 | 94 | 1015.9 |
| 20260901132105 | 23 | 218 | 1.6 | 3.2 | 0.00 | 0.69 | 0.69 | 94 | 1015.9 |
| 20260901131605 | 23 | 208 | 0.0 | 4.8 | 0.00 | 0.69 | 0.69 | 94 | 1015.7 |
| 20260901131105 | 23 | 208 | 1.6 | 4.8 | 0.00 | 0.69 | 0.69 | 94 | 1015.8 |
| 20260901130605 | 23 | 177 | 3.2 | 4.8 | 0.00 | 0.69 | 0.69 | 94 | 1015.7 |
| 20260901130107 | 23 | 155 | 1.6 | 4.8 | 0.00 | 0.69 | 0.69 | 94 | 1015.7 |
| 20260901125605 | 23 | 178 | 3.2 | 4.8 | 0.00 | 0.69 | 0.69 | 94 | 1015.6 |
| 20260901125105 | 23 | 204 | 1.6 | 4.8 | 0.00 | 0.69 | 0.69 | 94 | 1015.6 |
| 20260901124605 | 23 | 203 | 1.6 | 4.8 | 0.00 | 0.69 | 0.69 | 94 | 1015.8 |
| 20260901124105 | 22 | 230 | 1.6 | 4.8 | 0.00 | 0.69 | 0.69 | 94 | 1015.9 |
| 20260901123605 | 22 | 176 | 1.6 | 4.8 | 0.00 | 0.69 | 0.69 | 94 | 1015.7 |
| 20260901123105 | 22 | 168 | 0.0 | 4.8 | 0.00 | 0.69 | 0.69 | 94 | 1015.8 |
| 20260901122605 | 22 | 208 | 1.6 | 4.8 | 0.00 | 0.69 | 0.69 | 94 | 1015.9 |
| 20260901122106 | 22 | 240 | 3.2 | 4.8 | 0.00 | 0.69 | 0.69 | 94 | 1016.0 |
| 20260901121605 | 22 | 195 | 0.0 | 4.8 | 0.00 | 0.69 | 0.69 | 94 | 1015.9 |
| 20260901121105 | 22 | 187 | 3.2 | 4.8 | 0.00 | 0.69 | 0.69 | 94 | 1016.2 |
| 20260901120605 | 22 | 109 | 0.0 | 3.2 | 0.00 | 0.69 | 0.69 | 94 | 1016.1 |
| 20260901120106 | 22 | 109 | 0.0 | 3.2 | 0.00 | 0.69 | 0.69 | 94 | 1016.1 |
| 20260901115605 | 22 | 109 | 1.6 | 3.2 | 0.00 | 0.69 | 0.69 | 94 | 1016.0 |
| 20260901115105 | 22 | 126 | 1.6 | 3.2 | 0.00 | 0.69 | 0.69 | 94 | 1016.0 |
| 20260901114605 | 22 | 148 | 1.6 | 3.2 | 0.00 | 0.69 | 0.69 | 94 | 1016.1 |
| 20260901114106 | 22 | 148 | 1.6 | 4.8 | 0.00 | 0.69 | 0.69 | 94 | 1016.2 |
| 20260901113605 | 22 | 148 | 1.6 | 4.8 | 0.00 | 0.69 | 0.69 | 94 | 1016.2 |
| 20260901113105 | 22 | 148 | 0.0 | 4.8 | 0.00 | 0.69 | 0.69 | 94 | 1016.2 |
| 20260901112605 | 22 | 146 | 3.2 | 4.8 | 0.00 | 0.69 | 0.69 | 94 | 1016.1 |
| 20260901112105 | 22 | 100 | 1.6 | 4.8 | 0.00 | 0.69 | 0.69 | 94 | 1016.2 |
| 20260901111605 | 21 | 96 | 1.6 | 4.8 | 0.00 | 0.69 | 0.69 | 94 | 1016.3 |
| 20260901111105 | 21 | 94 | 1.6 | 4.8 | 0.00 | 0.69 | 0.69 | 93 | 1016.4 |
| 20260901110605 | 21 | 94 | 1.6 | 3.2 | 0.00 | 0.69 | 0.69 | 93 | 1016.4 |
| 20260901110106 | 21 | 116 | 0.0 | 3.2 | 0.00 | 0.69 | 0.69 | 93 | 1016.3 |
| 20260901105605 | 21 | 116 | 1.6 | 3.2 | 0.00 | 0.69 | 0.69 | 93 | 1016.2 |
| 20260901105105 | 21 | 118 | 0.0 | 4.8 | 0.00 | 0.69 | 0.69 | 93 | 1016.2 |
| 20260901104605 | 21 | 118 | 1.6 | 4.8 | 0.00 | 0.69 | 0.69 | 93 | 1016.1 |
| 20260901104105 | 21 | 125 | 1.6 | 4.8 | 0.00 | 0.69 | 0.69 | 93 | 1016.0 |
| 20260901103605 | 21 | 135 | 3.2 | 4.8 | 0.00 | 0.69 | 0.69 | 93 | 1015.9 |
| 20260901103105 | 21 | 137 | 1.6 | 4.8 | 0.00 | 0.69 | 0.69 | 93 | 1015.9 |
| 20260901102605 | 21 | 137 | 1.6 | 4.8 | 0.00 | 0.69 | 0.69 | 93 | 1016.0 |
| 20260901102105 | 21 | 122 | 3.2 | 4.8 | 0.00 | 0.69 | 0.69 | 93 | 1015.9 |
| 20260901101605 | 21 | 115 | 1.6 | 3.2 | 0.00 | 0.69 | 0.69 | 93 | 1016.1 |
| 20260901101105 | 21 | 115 | 0.0 | 3.2 | 0.00 | 0.69 | 0.69 | 93 | 1016.1 |
| 20260901100605 | 21 | 116 | 1.6 | 4.8 | 0.00 | 0.69 | 0.69 | 93 | 1016.0 |
| 20260901100107 | 21 | 116 | 1.6 | 4.8 | 0.00 | 0.69 | 0.69 | 93 | 1015.9 |
| 20260901095605 | 21 | 116 | 1.6 | 4.8 | 0.00 | 0.69 | 0.69 | 93 | 1015.8 |
| 20260901095105 | 21 | 116 | 3.2 | 4.8 | 0.00 | 0.69 | 0.69 | 92 | 1015.8 |
| 20260901094605 | 21 | 120 | 1.6 | 4.8 | 0.03 | 0.69 | 0.69 | 92 | 1015.9 |
| 20260901094105 | 21 | 168 | 3.2 | 4.8 | 0.03 | 0.69 | 0.69 | 92 | 1015.9 |
| 20260901093605 | 21 | 102 | 0.0 | 4.8 | 0.05 | 0.69 | 0.69 | 92 | 1015.9 |
| 20260901093105 | 21 | 102 | 3.2 | 4.8 | 0.05 | 0.69 | 0.69 | 92 | 1016.0 |
| 20260901092605 | 21 | 106 | 1.6 | 3.2 | 0.05 | 0.69 | 0.69 | 92 | 1016.1 |
| 20260901092106 | 21 | 108 | 1.6 | 3.2 | 0.08 | 0.69 | 0.69 | 92 | 1016.1 |
| 20260901091605 | 21 | 108 | 1.6 | 4.8 | 0.08 | 0.69 | 0.69 | 92 | 1016.2 |
| 20260901091105 | 21 | 106 | 1.6 | 4.8 | 0.08 | 0.69 | 0.69 | 92 | 1016.3 |
| 20260901090605 | 21 | 133 | 0.0 | 4.8 | 0.08 | 0.69 | 0.69 | 92 | 1016.2 |
| 20260901090106 | 21 | 139 | 3.2 | 4.8 | 0.08 | 0.69 | 0.69 | 92 | 1016.2 |
| 20260901085605 | 21 | 94 | 3.2 | 4.8 | 0.08 | 0.69 | 0.69 | 92 | 1016.2 |
| 20260901085105 | 21 | 121 | 3.2 | 4.8 | 0.08 | 0.69 | 0.69 | 92 | 1016.2 |
| 20260901084605 | 21 | 90 | 3.2 | 4.8 | 0.05 | 0.66 | 0.66 | 92 | 1016.2 |
| 20260901084105 | 21 | 101 | 3.2 | 4.8 | 0.05 | 0.66 | 0.66 | 92 | 1016.3 |
| 20260901083605 | 21 | 56 | 3.2 | 4.8 | 0.03 | 0.64 | 0.64 | 92 | 1016.4 |
| 20260901083105 | 21 | 66 | 3.2 | 4.8 | 0.03 | 0.64 | 0.64 | 91 | 1016.5 |
| 20260901082605 | 21 | 33 | 1.6 | 4.8 | 0.08 | 0.64 | 0.64 | 91 | 1016.5 |
| 20260901082105 | 21 | 118 | 3.2 | 4.8 | 0.13 | 0.61 | 0.61 | 91 | 1016.4 |
| 20260901081605 | 21 | 331 | 1.6 | 4.8 | 0.30 | 0.61 | 0.61 | 91 | 1016.5 |
| 20260901081105 | 21 | 356 | 4.8 | 4.8 | 0.30 | 0.61 | 0.61 | 91 | 1016.5 |
| 20260901080605 | 22 | 62 | 0.0 | 4.8 | 0.30 | 0.61 | 0.61 | 91 | 1016.4 |
| 20260901080106 | 22 | 62 | 3.2 | 4.8 | 0.30 | 0.61 | 0.61 | 91 | 1016.3 |
| 20260901075605 | 22 | 81 | 1.6 | 4.8 | 0.30 | 0.61 | 0.61 | 91 | 1016.3 |
| 20260901075105 | 22 | 129 | 1.6 | 3.2 | 0.30 | 0.61 | 0.61 | 91 | 1016.4 |
| 20260901074605 | 22 | 165 | 1.6 | 3.2 | 0.30 | 0.61 | 0.61 | 91 | 1016.5 |
| 20260901074105 | 22 | 165 | 0.0 | 3.2 | 0.30 | 0.61 | 0.61 | 90 | 1016.5 |
| 20260901073605 | 22 | 146 | 0.0 | 3.2 | 0.30 | 0.61 | 0.61 | 90 | 1016.4 |
| 20260901073105 | 22 | 146 | 1.6 | 3.2 | 0.30 | 0.61 | 0.61 | 90 | 1016.5 |
| 20260901072605 | 22 | 146 | 0.0 | 4.8 | 0.25 | 0.56 | 0.56 | 90 | 1016.5 |
| 20260901072105 | 21 | 147 | 1.6 | 4.8 | 0.18 | 0.48 | 0.48 | 90 | 1016.5 |
| 20260901071605 | 21 | 146 | 3.2 | 4.8 | 0.00 | 0.30 | 0.30 | 90 | 1016.4 |
| 20260901071105 | 21 | 146 | 1.6 | 3.2 | 0.00 | 0.30 | 0.30 | 90 | 1016.5 |
| 20260901070605 | 22 | 146 | 1.6 | 4.8 | 0.03 | 0.30 | 0.30 | 89 | 1016.5 |
| 20260901070107 | 22 | 146 | 3.2 | 4.8 | 0.03 | 0.30 | 0.30 | 89 | 1016.5 |
| 20260901065605 | 22 | 143 | 3.2 | 4.8 | 0.05 | 0.30 | 0.30 | 89 | 1016.6 |
| 20260901065105 | 22 | 137 | 3.2 | 4.8 | 0.10 | 0.30 | 0.30 | 89 | 1016.7 |
| 20260901064605 | 22 | 164 | 3.2 | 4.8 | 0.18 | 0.30 | 0.30 | 89 | 1016.8 |
| 20260901064105 | 22 | 175 | 1.6 | 4.8 | 0.23 | 0.30 | 0.30 | 89 | 1016.9 |
| 20260901063605 | 22 | 175 | 1.6 | 4.8 | 0.25 | 0.30 | 0.30 | 89 | 1016.9 |
| 20260901063105 | 22 | 187 | 3.2 | 4.8 | 0.28 | 0.30 | 0.30 | 88 | 1016.9 |
| 20260901062605 | 22 | 173 | 1.6 | 3.2 | 0.30 | 0.30 | 0.30 | 88 | 1017.1 |
| 20260901062105 | 22 | 173 | 0.0 | 4.8 | 0.30 | 0.30 | 0.30 | 88 | 1017.1 |
| 20260901061605 | 22 | 173 | 1.6 | 4.8 | 0.30 | 0.30 | 0.30 | 88 | 1017.1 |
| 20260901061105 | 22 | 173 | 3.2 | 4.8 | 0.30 | 0.30 | 0.30 | 88 | 1017.1 |
| 20260901060605 | 22 | 181 | 1.6 | 3.2 | 0.28 | 0.28 | 0.28 | 87 | 1017.2 |
| 20260901060106 | 22 | 181 | 0.0 | 1.6 | 0.28 | 0.28 | 0.28 | 87 | 1017.3 |
| 20260901055605 | 22 | 181 | 1.6 | 1.6 | 0.25 | 0.25 | 0.25 | 87 | 1017.3 |
| 20260901055105 | 22 | 181 | 0.0 | 1.6 | 0.20 | 0.20 | 0.20 | 87 | 1017.3 |
| 20260901054605 | 22 | 181 | 0.0 | 1.6 | 0.13 | 0.13 | 0.13 | 87 | 1017.3 |
| 20260901054105 | 22 | 181 | 0.0 | 3.2 | 0.08 | 0.08 | 0.08 | 87 | 1017.3 |
| 20260901053605 | 22 | 181 | 0.0 | 4.8 | 0.05 | 0.05 | 0.05 | 86 | 1017.4 |
| 20260901053105 | 22 | 183 | 1.6 | 4.8 | 0.03 | 0.03 | 0.03 | 86 | 1017.4 |
| 20260901052605 | 22 | 185 | 1.6 | 8.0 | 0.00 | 0.00 | 0.00 | 86 | 1017.4 |
| 20260901052105 | 22 | 188 | 3.2 | 8.0 | 0.00 | 0.00 | 0.00 | 86 | 1017.5 |
| 20260901051605 | 22 | 175 | 3.2 | 9.7 | 0.00 | 0.00 | 0.00 | 85 | 1017.5 |
| 20260901051105 | 22 | 200 | 3.2 | 9.7 | 0.00 | 0.00 | 0.00 | 85 | 1017.5 |
| 20260901050605 | 22 | 219 | 1.6 | 8.0 | 0.00 | 0.00 | 0.00 | 85 | 1017.6 |
| 20260901050106 | 22 | 174 | 3.2 | 8.0 | 0.00 | 0.00 | 0.00 | 85 | 1017.5 |
| 20260901045605 | 22 | 195 | 3.2 | 8.0 | 0.00 | 0.00 | 0.00 | 85 | 1017.5 |
| 20260901045105 | 22 | 196 | 3.2 | 8.0 | 0.00 | 0.00 | 0.00 | 85 | 1017.6 |
| 20260901044605 | 22 | 183 | 1.6 | 9.7 | 0.00 | 0.00 | 0.00 | 85 | 1017.6 |
| 20260901044105 | 22 | 215 | 3.2 | 9.7 | 0.00 | 0.00 | 0.00 | 85 | 1017.7 |
| 20260901043605 | 22 | 174 | 1.6 | 9.7 | 0.00 | 0.00 | 0.00 | 85 | 1017.7 |
| 20260901043105 | 22 | 206 | 1.6 | 9.7 | 0.00 | 0.00 | 0.00 | 85 | 1017.7 |
| 20260901042605 | 22 | 185 | 4.8 | 14.5 | 0.00 | 0.00 | 0.00 | 84 | 1017.7 |
| 20260901042105 | 22 | 192 | 8.0 | 14.5 | 0.00 | 0.00 | 0.00 | 85 | 1017.7 |
| 20260901041605 | 22 | 181 | 8.0 | 12.9 | 0.00 | 0.00 | 0.00 | 84 | 1017.7 |
| 20260901041105 | 22 | 146 | 4.8 | 11.3 | 0.00 | 0.00 | 0.00 | 84 | 1017.7 |
| 20260901040605 | 22 | 186 | 3.2 | 9.7 | 0.00 | 0.00 | 0.00 | 84 | 1017.7 |
| 20260901040106 | 22 | 162 | 4.8 | 9.7 | 0.00 | 0.00 | 0.00 | 84 | 1017.8 |
| 20260901035605 | 22 | 193 | 3.2 | 9.7 | 0.00 | 0.00 | 0.00 | 84 | 1017.7 |
| 20260901035105 | 22 | 151 | 3.2 | 9.7 | 0.00 | 0.00 | 0.00 | 84 | 1017.8 |
| 20260901034605 | 22 | 186 | 4.8 | 9.7 | 0.00 | 0.00 | 0.00 | 84 | 1017.8 |
| 20260901034105 | 22 | 162 | 3.2 | 9.7 | 0.00 | 0.00 | 0.00 | 84 | 1017.8 |
| 20260901033605 | 22 | 173 | 4.8 | 11.3 | 0.00 | 0.00 | 0.00 | 84 | 1017.8 |
| 20260901033105 | 22 | 187 | 4.8 | 11.3 | 0.00 | 0.00 | 0.00 | 84 | 1017.9 |
| 20260901032605 | 22 | 181 | 4.8 | 9.7 | 0.00 | 0.00 | 0.00 | 84 | 1017.9 |
| 20260901032106 | 22 | 155 | 4.8 | 9.7 | 0.00 | 0.00 | 0.00 | 84 | 1017.9 |
| 20260901031605 | 22 | 175 | 3.2 | 8.0 | 0.00 | 0.00 | 0.00 | 84 | 1017.9 |
| 20260901031105 | 22 | 174 | 3.2 | 8.0 | 0.00 | 0.00 | 0.00 | 84 | 1018.1 |
| 20260901030605 | 22 | 199 | 3.2 | 4.8 | 0.00 | 0.00 | 0.00 | 84 | 1018.2 |
| 20260901030107 | 22 | 143 | 3.2 | 8.0 | 0.00 | 0.00 | 0.00 | 84 | 1018.2 |
| 20260901025605 | 22 | 172 | 3.2 | 8.0 | 0.00 | 0.00 | 0.00 | 84 | 1018.2 |
| 20260901025105 | 22 | 171 | 1.6 | 8.0 | 0.00 | 0.00 | 0.00 | 84 | 1018.4 |
| 20260901024605 | 22 | 188 | 4.8 | 8.0 | 0.00 | 0.00 | 0.00 | 84 | 1018.5 |
| 20260901024105 | 22 | 173 | 1.6 | 4.8 | 0.00 | 0.00 | 0.00 | 84 | 1018.5 |
| 20260901023605 | 22 | 150 | 0.0 | 4.8 | 0.00 | 0.00 | 0.00 | 84 | 1018.4 |
| 20260901023105 | 22 | 167 | 3.2 | 8.0 | 0.00 | 0.00 | 0.00 | 84 | 1018.4 |
| 20260901022605 | 22 | 144 | 3.2 | 8.0 | 0.00 | 0.00 | 0.00 | 84 | 1018.4 |
| 20260901022105 | 22 | 172 | 3.2 | 8.0 | 0.00 | 0.00 | 0.00 | 84 | 1018.4 |
| 20260901021605 | 22 | 148 | 4.8 | 8.0 | 0.00 | 0.03 | 0.00 | 84 | 1018.4 |
| 20260901021105 | 22 | 144 | 3.2 | 11.3 | 0.00 | 0.03 | 0.00 | 84 | 1018.4 |
| 20260901020605 | 22 | 169 | 3.2 | 11.3 | 0.00 | 0.03 | 0.00 | 84 | 1018.5 |
| 20260901020107 | 22 | 190 | 3.2 | 8.0 | 0.00 | 0.03 | 0.00 | 84 | 1018.5 |
| 20260901015605 | 22 | 164 | 3.2 | 9.7 | 0.00 | 0.03 | 0.00 | 84 | 1018.5 |
| 20260901015105 | 22 | 184 | 3.2 | 11.3 | 0.00 | 0.03 | 0.00 | 84 | 1018.5 |
| 20260901014605 | 22 | 164 | 6.4 | 11.3 | 0.00 | 0.03 | 0.00 | 84 | 1018.6 |
| 20260901014105 | 22 | 156 | 3.2 | 4.8 | 0.00 | 0.03 | 0.00 | 84 | 1018.6 |
| 20260901013605 | 22 | 164 | 3.2 | 4.8 | 0.00 | 0.03 | 0.00 | 84 | 1018.7 |
| 20260901013105 | 22 | 160 | 3.2 | 4.8 | 0.00 | 0.03 | 0.00 | 84 | 1018.8 |
| 20260901012605 | 22 | 149 | 3.2 | 11.3 | 0.00 | 0.03 | 0.00 | 84 | 1018.7 |
| 20260901012105 | 22 | 169 | 4.8 | 11.3 | 0.00 | 0.03 | 0.00 | 84 | 1018.7 |
| 20260901011605 | 22 | 163 | 3.2 | 9.7 | 0.00 | 0.03 | 0.00 | 84 | 1018.6 |
| 20260901011105 | 22 | 128 | 4.8 | 11.3 | 0.00 | 0.03 | 0.00 | 84 | 1018.6 |
| 20260901010605 | 22 | 143 | 4.8 | 11.3 | 0.00 | 0.03 | 0.00 | 84 | 1018.5 |
| 20260901010107 | 22 | 131 | 4.8 | 4.8 | 0.00 | 0.03 | 0.00 | 84 | 1018.5 |
| 20260901005605 | 22 | 137 | 3.2 | 9.7 | 0.00 | 0.03 | 0.00 | 84 | 1018.5 |
| 20260901005105 | 22 | 147 | 4.8 | 9.7 | 0.00 | 0.03 | 0.00 | 84 | 1018.5 |
| 20260901004605 | 22 | 172 | 4.8 | 11.3 | 0.00 | 0.03 | 0.00 | 83 | 1018.4 |
| 20260901004106 | 22 | 123 | 3.2 | 11.3 | 0.00 | 0.03 | 0.00 | 83 | 1018.4 |
| 20260901003605 | 22 | 129 | 4.8 | 11.3 | 0.00 | 0.03 | 0.00 | 83 | 1018.4 |
| 20260901003105 | 22 | 150 | 4.8 | 11.3 | 0.00 | 0.03 | 0.00 | 83 | 1018.5 |
| 20260901002605 | 22 | 158 | 8.0 | 11.3 | 0.00 | 0.03 | 0.00 | 82 | 1018.4 |
| 20260901002105 | 22 | 151 | 3.2 | 11.3 | 0.00 | 0.03 | 0.00 | 82 | 1018.5 |
| 20260901001605 | 22 | 169 | 4.8 | 11.3 | 0.00 | 0.03 | 0.00 | 82 | 1018.4 |
| 20260901001105 | 22 | 138 | 3.2 | 8.0 | 0.00 | 0.03 | 0.00 | 82 | 1018.4 |
| 20260901000605 | 22 | 117 | 3.2 | 9.7 | 0.00 | 0.03 | 0.00 | 82 | 1018.3 |
| 20260901000106 | 22 | 147 | 4.8 | 9.7 | 0.00 | 0.03 | 0.00 | 82 | 1018.4 |
| 20260831235605 | 22 | 136 | 6.4 | 11.3 | 0.00 | 0.03 | 0.00 | 81 | 1018.4 |
| 20260831235105 | 22 | 136 | 4.8 | 12.9 | 0.00 | 0.03 | 0.00 | 81 | 1018.4 |
| 20260831234605 | 22 | 121 | 3.2 | 12.9 | 0.00 | 0.03 | 0.00 | 81 | 1018.4 |
| 20260831234105 | 22 | 173 | 4.8 | 9.7 | 0.00 | 0.03 | 0.00 | 80 | 1018.4 |
| 20260831233605 | 22 | 130 | 3.2 | 9.7 | 0.00 | 0.03 | 0.00 | 80 | 1018.5 |
| 20260831233105 | 22 | 145 | 4.8 | 9.7 | 0.00 | 0.03 | 0.00 | 79 | 1018.6 |
| 20260831232605 | 22 | 173 | 3.2 | 9.7 | 0.00 | 0.03 | 0.00 | 79 | 1018.6 |
| 20260831232105 | 22 | 177 | 4.8 | 11.3 | 0.00 | 0.03 | 0.00 | 79 | 1018.6 |
| 20260831231605 | 23 | 142 | 8.0 | 11.3 | 0.00 | 0.03 | 0.00 | 79 | 1018.6 |
| 20260831231105 | 23 | 163 | 3.2 | 8.0 | 0.00 | 0.03 | 0.00 | 79 | 1018.6 |
| 20260831230605 | 23 | 156 | 3.2 | 8.0 | 0.00 | 0.03 | 0.00 | 78 | 1018.6 |
| 20260831230107 | 23 | 177 | 4.8 | 9.7 | 0.00 | 0.03 | 0.00 | 78 | 1018.6 |
| 20260831225605 | 23 | 150 | 4.8 | 9.7 | 0.00 | 0.03 | 0.00 | 78 | 1018.5 |
| 20260831225105 | 23 | 142 | 3.2 | 9.7 | 0.00 | 0.03 | 0.00 | 78 | 1018.6 |
| 20260831224605 | 23 | 170 | 3.2 | 9.7 | 0.00 | 0.03 | 0.00 | 78 | 1018.6 |
| 20260831224105 | 23 | 181 | 3.2 | 4.8 | 0.00 | 0.03 | 0.00 | 77 | 1018.5 |
| 20260831223605 | 23 | 147 | 1.6 | 8.0 | 0.00 | 0.03 | 0.00 | 77 | 1018.5 |
| 20260831223105 | 23 | 159 | 3.2 | 8.0 | 0.00 | 0.03 | 0.00 | 77 | 1018.5 |
| 20260831222605 | 23 | 173 | 4.8 | 9.7 | 0.00 | 0.03 | 0.00 | 77 | 1018.6 |
| 20260831222105 | 23 | 157 | 3.2 | 9.7 | 0.00 | 0.03 | 0.00 | 77 | 1018.6 |
| 20260831221605 | 23 | 116 | 3.2 | 9.7 | 0.00 | 0.03 | 0.00 | 77 | 1018.7 |
| 20260831221105 | 23 | 168 | 4.8 | 9.7 | 0.00 | 0.03 | 0.00 | 77 | 1018.7 |
| 20260831220605 | 23 | 180 | 4.8 | 9.7 | 0.00 | 0.03 | 0.00 | 77 | 1018.7 |
| 20260831220106 | 23 | 164 | 3.2 | 12.9 | 0.00 | 0.03 | 0.00 | 77 | 1018.8 |
| 20260831215605 | 23 | 169 | 1.6 | 12.9 | 0.00 | 0.03 | 0.00 | 77 | 1018.7 |
| 20260831215105 | 23 | 149 | 8.0 | 12.9 | 0.00 | 0.03 | 0.00 | 77 | 1018.7 |
| 20260831214605 | 23 | 142 | 4.8 | 12.9 | 0.00 | 0.03 | 0.00 | 77 | 1018.8 |
| 20260831214105 | 23 | 171 | 4.8 | 12.9 | 0.00 | 0.03 | 0.00 | 77 | 1018.9 |
| 20260831213605 | 23 | 185 | 6.4 | 12.9 | 0.00 | 0.03 | 0.00 | 77 | 1019.0 |
| 20260831213105 | 23 | 153 | 6.4 | 12.9 | 0.00 | 0.03 | 0.00 | 76 | 1019.1 |
| 20260831212605 | 23 | 159 | 4.8 | 12.9 | 0.00 | 0.03 | 0.00 | 76 | 1019.1 |
| 20260831212105 | 23 | 180 | 6.4 | 12.9 | 0.00 | 0.03 | 0.00 | 76 | 1019.1 |
| 20260831211605 | 23 | 178 | 3.2 | 12.9 | 0.00 | 0.03 | 0.00 | 77 | 1019.0 |
| 20260831211105 | 23 | 148 | 8.0 | 12.9 | 0.00 | 0.03 | 0.00 | 76 | 1018.9 |
| 20260831210605 | 23 | 183 | 4.8 | 14.5 | 0.00 | 0.03 | 0.00 | 76 | 1018.9 |
| 20260831210106 | 23 | 172 | 8.0 | 19.3 | 0.00 | 0.03 | 0.00 | 75 | 1018.9 |
| 20260831205605 | 23 | 162 | 6.4 | 19.3 | 0.00 | 0.03 | 0.00 | 75 | 1018.9 |
| 20260831205105 | 23 | 193 | 9.7 | 19.3 | 0.00 | 0.03 | 0.00 | 75 | 1018.9 |
| 20260831204606 | 23 | 165 | 9.7 | 19.3 | 0.00 | 0.03 | 0.00 | 75 | 1019.0 |
| 20260831204105 | 23 | 158 | 4.8 | 14.5 | 0.00 | 0.03 | 0.00 | 74 | 1019.0 |
| 20260831203605 | 23 | 168 | 8.0 | 16.1 | 0.00 | 0.03 | 0.00 | 74 | 1019.0 |
| 20260831203105 | 23 | 156 | 8.0 | 16.1 | 0.00 | 0.03 | 0.00 | 73 | 1019.1 |
| 20260831202605 | 24 | 171 | 8.0 | 19.3 | 0.00 | 0.03 | 0.00 | 73 | 1019.2 |
| 20260831202105 | 24 | 174 | 11.3 | 19.3 | 0.00 | 0.03 | 0.00 | 72 | 1019.3 |
| 20260831201605 | 24 | 173 | 3.2 | 16.1 | 0.00 | 0.03 | 0.00 | 72 | 1019.3 |
| 20260831201105 | 25 | 156 | 11.3 | 16.1 | 0.00 | 0.03 | 0.00 | 71 | 1019.3 |
| 20260831200605 | 25 | 181 | 8.0 | 14.5 | 0.00 | 0.03 | 0.00 | 70 | 1019.3 |
| 20260831200106 | 25 | 189 | 4.8 | 14.5 | 0.00 | 0.03 | 0.00 | 69 | 1019.3 |
| 20260831195605 | 25 | 193 | 4.8 | 16.1 | 0.00 | 0.03 | 0.00 | 69 | 1019.4 |
| 20260831195105 | 25 | 153 | 6.4 | 22.5 | 0.00 | 0.03 | 0.00 | 68 | 1019.3 |
| 20260831194605 | 25 | 175 | 4.8 | 22.5 | 0.00 | 0.03 | 0.00 | 67 | 1019.4 |
| 20260831194105 | 25 | 193 | 8.0 | 19.3 | 0.00 | 0.03 | 0.00 | 67 | 1019.3 |
| 20260831193605 | 25 | 138 | 11.3 | 19.3 | 0.00 | 0.03 | 0.00 | 65 | 1019.5 |
| 20260831193105 | 25 | 147 | 9.7 | 19.3 | 0.00 | 0.03 | 0.00 | 65 | 1019.5 |
| 20260831192605 | 25 | 164 | 11.3 | 20.9 | 0.00 | 0.03 | 0.00 | 65 | 1019.4 |
| 20260831192106 | 26 | 142 | 11.3 | 20.9 | 0.00 | 0.03 | 0.00 | 64 | 1019.5 |
| 20260831191605 | 26 | 187 | 9.7 | 22.5 | 0.00 | 0.03 | 0.00 | 64 | 1019.6 |
| 20260831191105 | 26 | 165 | 9.7 | 22.5 | 0.00 | 0.03 | 0.00 | 63 | 1019.8 |
| 20260831190605 | 26 | 160 | 14.5 | 20.9 | 0.00 | 0.03 | 0.00 | 62 | 1019.8 |
| 20260831190108 | 26 | 150 | 11.3 | 20.9 | 0.00 | 0.03 | 0.00 | 62 | 1019.8 |
| 20260831185605 | 27 | 149 | 12.9 | 20.9 | 0.00 | 0.03 | 0.00 | 62 | 1019.8 |
| 20260831185105 | 27 | 142 | 9.7 | 24.1 | 0.00 | 0.03 | 0.00 | 62 | 1019.7 |
| 20260831184605 | 27 | 170 | 9.7 | 24.1 | 0.00 | 0.03 | 0.00 | 61 | 1019.6 |
| 20260831184105 | 27 | 170 | 14.5 | 20.9 | 0.00 | 0.03 | 0.00 | 59 | 1019.7 |
| 20260831183605 | 26 | 150 | 9.7 | 19.3 | 0.00 | 0.03 | 0.00 | 60 | 1019.7 |
| 20260831183105 | 26 | 149 | 8.0 | 19.3 | 0.00 | 0.03 | 0.00 | 59 | 1019.7 |
| 20260831182605 | 27 | 167 | 8.0 | 22.5 | 0.00 | 0.03 | 0.00 | 59 | 1019.8 |
| 20260831182105 | 27 | 128 | 14.5 | 22.5 | 0.00 | 0.03 | 0.00 | 60 | 1019.8 |
| 20260831181605 | 27 | 158 | 9.7 | 19.3 | 0.00 | 0.03 | 0.00 | 58 | 1019.9 |
| 20260831181105 | 27 | 149 | 11.3 | 19.3 | 0.00 | 0.03 | 0.00 | 58 | 1019.9 |
| 20260831180605 | 27 | 148 | 9.7 | 19.3 | 0.00 | 0.03 | 0.00 | 58 | 1020.1 |
| 20260831180107 | 27 | 140 | 8.0 | 19.3 | 0.00 | 0.03 | 0.00 | 58 | 1020.0 |
| 20260831175605 | 27 | 168 | 11.3 | 19.3 | 0.00 | 0.03 | 0.00 | 58 | 1019.9 |
| 20260831175105 | 27 | 161 | 9.7 | 19.3 | 0.00 | 0.03 | 0.00 | 59 | 1019.9 |
| 20260831174605 | 27 | 137 | 12.9 | 19.3 | 0.00 | 0.03 | 0.00 | 59 | 1019.9 |
| 20260831174105 | 27 | 145 | 11.3 | 20.9 | 0.00 | 0.03 | 0.00 | 59 | 1019.9 |
| 20260831173605 | 27 | 177 | 14.5 | 20.9 | 0.00 | 0.03 | 0.00 | 59 | 1020.0 |
| 20260831173105 | 27 | 137 | 8.0 | 19.3 | 0.00 | 0.03 | 0.00 | 60 | 1020.0 |
| 20260831172605 | 27 | 164 | 14.5 | 19.3 | 0.00 | 0.03 | 0.00 | 59 | 1020.0 |
| 20260831172106 | 27 | 144 | 6.4 | 19.3 | 0.00 | 0.03 | 0.00 | 60 | 1020.1 |
| 20260831171605 | 27 | 167 | 6.4 | 19.3 | 0.00 | 0.03 | 0.00 | 62 | 1020.1 |
| 20260831171105 | 27 | 156 | 8.0 | 19.3 | 0.00 | 0.03 | 0.00 | 62 | 1020.1 |
| 20260831170605 | 27 | 166 | 9.7 | 16.1 | 0.00 | 0.03 | 0.00 | 62 | 1020.0 |
| 20260831170107 | 27 | 167 | 9.7 | 16.1 | 0.00 | 0.03 | 0.00 | 62 | 1020.1 |
| 20260831165605 | 27 | 127 | 9.7 | 19.3 | 0.00 | 0.03 | 0.00 | 61 | 1020.1 |
| 20260831165105 | 27 | 168 | 11.3 | 19.3 | 0.00 | 0.03 | 0.00 | 61 | 1020.0 |
| 20260831164605 | 27 | 101 | 4.8 | 16.1 | 0.00 | 0.03 | 0.00 | 61 | 1020.0 |
| 20260831164105 | 27 | 120 | 8.0 | 14.5 | 0.00 | 0.03 | 0.00 | 62 | 1020.0 |
| 20260831163605 | 27 | 155 | 4.8 | 14.5 | 0.00 | 0.03 | 0.00 | 61 | 1020.1 |
| 20260831163105 | 27 | 159 | 6.4 | 14.5 | 0.00 | 0.03 | 0.00 | 61 | 1020.2 |
| 20260831162605 | 27 | 86 | 4.8 | 12.9 | 0.00 | 0.03 | 0.00 | 60 | 1020.2 |
| 20260831162105 | 26 | 84 | 4.8 | 16.1 | 0.00 | 0.03 | 0.00 | 61 | 1020.1 |
| 20260831161605 | 26 | 138 | 8.0 | 16.1 | 0.00 | 0.03 | 0.00 | 62 | 1020.1 |
| 20260831161105 | 26 | 66 | 8.0 | 14.5 | 0.00 | 0.03 | 0.00 | 64 | 1020.1 |
| 20260831160605 | 26 | 50 | 9.7 | 14.5 | 0.00 | 0.03 | 0.00 | 64 | 1020.2 |
| 20260831160107 | 26 | 76 | 6.4 | 14.5 | 0.00 | 0.03 | 0.00 | 65 | 1020.2 |
| 20260831155605 | 26 | 182 | 3.2 | 12.9 | 0.00 | 0.03 | 0.00 | 65 | 1020.2 |
| 20260831155105 | 26 | 154 | 4.8 | 12.9 | 0.00 | 0.03 | 0.00 | 66 | 1020.1 |
| 20260831154605 | 25 | 110 | 8.0 | 12.9 | 0.00 | 0.03 | 0.00 | 67 | 1020.1 |
| 20260831154105 | 25 | 94 | 4.8 | 9.7 | 0.00 | 0.03 | 0.00 | 68 | 1020.1 |
| 20260831153605 | 25 | 44 | 4.8 | 11.3 | 0.00 | 0.03 | 0.00 | 68 | 1020.1 |
| 20260831153105 | 25 | 191 | 6.4 | 11.3 | 0.00 | 0.03 | 0.00 | 69 | 1020.3 |
| 20260831152605 | 25 | 131 | 3.2 | 9.7 | 0.00 | 0.03 | 0.00 | 69 | 1020.3 |
| 20260831152105 | 24 | 177 | 3.2 | 9.7 | 0.00 | 0.03 | 0.00 | 71 | 1020.4 |
| 20260831151605 | 24 | 58 | 3.2 | 8.0 | 0.00 | 0.03 | 0.00 | 72 | 1020.4 |
| 20260831151105 | 23 | 77 | 3.2 | 9.7 | 0.00 | 0.03 | 0.00 | 73 | 1020.3 |
| 20260831150605 | 23 | 96 | 3.2 | 9.7 | 0.00 | 0.03 | 0.00 | 74 | 1020.4 |
| 20260831150107 | 23 | 107 | 3.2 | 11.3 | 0.00 | 0.03 | 0.00 | 74 | 1020.4 |
| 20260831145605 | 23 | 71 | 3.2 | 11.3 | 0.00 | 0.03 | 0.00 | 74 | 1020.5 |
| 20260831145105 | 23 | 23 | 6.4 | 9.7 | 0.00 | 0.03 | 0.00 | 74 | 1020.6 |
| 20260831144605 | 23 | 7 | 4.8 | 9.7 | 0.00 | 0.03 | 0.00 | 75 | 1020.6 |
| 20260831144107 | 23 | 31 | 4.8 | 9.7 | 0.00 | 0.03 | 0.00 | 75 | 1020.6 |
| 20260831143605 | 23 | 7 | 4.8 | 11.3 | 0.00 | 0.03 | 0.00 | 76 | 1020.5 |
| 20260831143105 | 22 | 30 | 4.8 | 11.3 | 0.00 | 0.03 | 0.00 | 76 | 1020.4 |
| 20260831142605 | 22 | 355 | 4.8 | 4.8 | 0.00 | 0.03 | 0.00 | 76 | 1020.4 |
| 20260831142105 | 22 | 28 | 4.8 | 11.3 | 0.00 | 0.03 | 0.00 | 76 | 1020.3 |
| 20260831141605 | 22 | 94 | 1.6 | 11.3 | 0.00 | 0.03 | 0.00 | 76 | 1020.3 |